sat.trackr.live / text

‹ back to catalog

UNKNOWN

NORAD 83934

UNKNOWN UNKNOWN UNKNOWN

§ Identity

Operator
Country
Launch date
Launch site
Launch vehicle
Mass (kg)
RCS (m²)

External: N2YO · Heavens-Above

§ Orbital elements

Epoch: 2026-05-24T02:07:53.832000Z

Period
1,402.66 min
Inclination
5.4171°
Eccentricity
0.0223665
Mean motion
1.02661769 rev/d
Perigee alt
34,201.2 km
Apogee alt
36,058.0 km
Semi-major
41,507.8 km
B*
0.0000e+0
RAAN
296.5286°
Arg perigee
275.5922°
Mean anomaly
70.1599°
Rev number
4,694

§ Raw data

UNKNOWN1 83934U          26144.08881750 -.00000015  00000+0  00000+0 0  99962 83934   5.4171 296.5286 0223665 275.5922  70.1599  1.02661769 46943

JSON: /api/v1/satellites/83934 · /tle

For live sub-satellite position, see the globe view (requires WebGL).

§ Visibility from observer

Set your observer location to see the next 7 days of passes ≥ 10°. The values pass through the URL so the page stays shareable.

No JS? Fill the form by hand. The geolocation button needs JavaScript.